Weather in Petrikovo

Russia / Mari El Republic     56°44′18″N   48°13′22″E
temp.,
°C
wind,
m/s
gust,
m/s
humid.,
%
clouds,
%
prec.,
mm/h
press.,
hPa
HPBL,
m
24 september, fri
fri2400:00+9se61393100 1.5 1018789
03:00+9se61492100 3.9 1016766
06:00+8se61392100 0.4 1014744
09:00+9se61292100 1.2 1014638
12:00+9se61284100 0.1 1014699
15:00+11sse61169100 0.1 1014768
18:00+8sse61293100 0.6 1014543
21:00+8sse61295100 3.1 1014643
25 september, sat
sat2500:00+8sse51194100 1.7 1014621
03:00+7se51095100 2.7 1013438
06:00+7se51194100 1.0 1013659
09:00+8se4893100 1.5 1012531
12:00+7se4791100 0.2 1012360
15:00+7ese359199 0.2 1012322
18:00+7e2293100 0.0 101275
21:00+7e2293100 0.0 101248
26 september, sun
sun2600:00+7ene2292100 0.0 101142
03:00+6ne2291100 0.0 101151
06:00+6ne2288100 0.0 101050
09:00+8ne2280100 0.0 1010170
12:00+11ne2369100 0.0 1009563
15:00+12ene4472100 0.1 1010670
18:00+9ne3691100 0.0 1010229
21:00+8ene4689100 0.0 1011322
27 september, mon
mon2700:00+7ne3694100 0.3 1011330
03:00+8nne3695100 0.3 1012366
06:00+7ne4795100 0.1 1014419
09:00+8e5983100 0.1 1016637
12:00+8ene6979100 0.0 1018692
15:00+7ene6878100 0.0 1020706
18:00+6ne41076100 0.0 1022476
21:00+3ne388567 0.0 1024178
28 september, tue
tue2800:00+2ene378218 0.0 1025142
03:00+2ene358297 0.0 1026106
06:00+2ne247896 0.0 1027123
09:00+6ne3461100 0.0 1028499
12:00+9nne3349100 0.0 10271065
15:00+9n454774 0.0 10271366
18:00+5nne336611 0.0 102733
21:00+3ne337612 0.0 102839